TimeEST,TemperatureF,Dew PointF,Humidity,Sea Level PressureIn,VisibilityMPH,Wind Direction,Wind SpeedMPH,Gust SpeedMPH,PrecipitationIn,Events,Conditions,WindDirDegrees,DateUTC
12:17 AM,30.2,26.6,86,29.33,2.0,WNW,18.4,27.6,0.00,Snow,Light Snow,290,2012-12-22 05:17:00
12:23 AM,30.2,26.6,86,29.34,0.8,WNW,20.7,27.6,0.01,Snow,Light Snow,290,2012-12-22 05:23:00
12:39 AM,28.4,26.6,93,29.35,1.0,WNW,13.8,24.2,0.01,Snow,Light Snow,290,2012-12-22 05:39:00
12:54 AM,28.9,27.0,92,29.37,2.0,WNW,18.4,24.2,0.02,Snow,Light Snow,290,2012-12-22 05:54:00
1:01 AM,28.4,26.6,93,29.36,1.5,WNW,20.7,29.9,0.00,Snow,Light Snow,300,2012-12-22 06:01:00
1:12 AM,28.4,26.6,93,29.37,1.0,WNW,19.6,26.5,0.00,Snow,Light Snow,290,2012-12-22 06:12:00
1:28 AM,28.4,26.6,93,29.38,0.5,WNW,16.1,25.3,0.01,Fog-Snow,Light Snow,290,2012-12-22 06:28:00
1:34 AM,28.4,26.6,93,29.38,1.0,WNW,19.6,28.8,0.01,Snow,Light Snow,290,2012-12-22 06:34:00
1:54 AM,28.9,25.0,85,29.42,2.5,WNW,16.1,24.2,0.01,Snow,Light Snow,290,2012-12-22 06:54:00
2:03 AM,28.4,24.8,86,29.40,4.0,WNW,16.1,24.2,0.00,Snow,Light Snow,300,2012-12-22 07:03:00
2:45 AM,28.4,24.8,86,29.43,2.0,WNW,18.4,23.0,0.01,Snow,Light Snow,290,2012-12-22 07:45:00
2:54 AM,28.9,24.1,82,29.46,2.0,WNW,18.4,29.9,0.01,Snow,Light Snow,300,2012-12-22 07:54:00
3:35 AM,28.4,23.0,80,29.46,1.2,WNW,21.9,31.1,0.00,Snow,Light Snow,300,2012-12-22 08:35:00
3:54 AM,28.0,24.1,85,29.49,0.8,WNW,16.1,31.1,0.00,Snow,Light Snow,300,2012-12-22 08:54:00
4:03 AM,28.4,24.8,86,29.47,1.5,WNW,21.9,33.4,0.00,Snow,Light Snow,300,2012-12-22 09:03:00
4:45 AM,26.6,24.8,93,29.49,1.0,WNW,16.1,32.2,0.00,Snow,Light Snow,300,2012-12-22 09:45:00
4:54 AM,28.0,23.0,81,29.51,1.5,WNW,16.1,34.5,0.00,Snow,Light Snow,300,2012-12-22 09:54:00
5:10 AM,28.4,23.0,80,29.50,1.8,WNW,24.2,28.8,0.00,Snow,Light Snow,300,2012-12-22 10:10:00
5:50 AM,28.4,23.0,80,29.52,2.0,WNW,19.6,32.2,0.00,Snow,Light Snow,300,2012-12-22 10:50:00
5:54 AM,28.0,24.1,85,29.55,1.8,WNW,18.4,32.2,0.00,Snow,Light Snow,300,2012-12-22 10:54:00
6:54 AM,28.0,24.1,85,29.59,1.2,WNW,21.9,28.8,0.00,Snow,Light Snow,300,2012-12-22 11:54:00
7:02 AM,28.4,24.8,86,29.57,0.8,WNW,17.3,29.9,0.00,Snow,Light Snow,300,2012-12-22 12:02:00
7:23 AM,28.4,24.8,86,29.58,0.8,West,19.6,29.9,N/A,Snow,Light Snow,280,2012-12-22 12:23:00
7:43 AM,28.4,24.8,86,29.60,0.8,West,18.4,31.1,0.03,Snow,Light Snow,280,2012-12-22 12:43:00
7:54 AM,28.0,24.1,85,29.62,0.5,West,19.6,31.1,0.03,Snow,Snow,280,2012-12-22 12:54:00
8:29 AM,28.4,23.0,80,29.62,1.0,West,20.7,34.5,0.00,Snow,Light Snow,280,2012-12-22 13:29:00
8:54 AM,28.0,23.0,81,29.66,2.0,West,23.0,35.7,0.00,Snow,Light Snow,280,2012-12-22 13:54:00
9:54 AM,28.0,23.0,81,29.70,1.8,West,21.9,34.5,0.00,Snow,Light Snow,280,2012-12-22 14:54:00
10:22 AM,28.4,21.2,74,29.69,3.0,WNW,25.3,36.8,0.00,Snow,Light Snow,290,2012-12-22 15:22:00
10:54 AM,28.9,21.0,72,29.73,8.0,West,28.8,40.3,0.00,Snow,Light Snow,280,2012-12-22 15:54:00
11:54 AM,28.9,19.9,69,29.74,10.0,WNW,23.0,41.4,0.00,,Mostly Cloudy,290,2012-12-22 16:54:00
12:54 PM,30.0,19.9,66,29.75,10.0,West,23.0,42.6,N/A,,Mostly Cloudy,280,2012-12-22 17:54:00
1:54 PM,30.0,19.9,66,29.77,10.0,WNW,23.0,34.5,N/A,,Mostly Cloudy,290,2012-12-22 18:54:00
2:20 PM,30.2,19.4,64,29.76,10.0,WNW,24.2,33.4,N/A,,Mostly Cloudy,300,2012-12-22 19:20:00
2:54 PM,30.9,19.9,64,29.79,10.0,WNW,18.4,28.8,N/A,,Mostly Cloudy,290,2012-12-22 19:54:00
3:54 PM,30.9,21.0,67,29.81,10.0,WNW,15.0,-,N/A,,Scattered Clouds,290,2012-12-22 20:54:00
4:54 PM,32.0,21.0,64,29.83,10.0,West,17.3,29.9,N/A,,Scattered Clouds,280,2012-12-22 21:54:00
5:54 PM,32.0,19.9,61,29.85,10.0,West,19.6,27.6,N/A,,Mostly Cloudy,280,2012-12-22 22:54:00
6:54 PM,32.0,21.0,64,29.87,10.0,West,17.3,32.2,N/A,,Mostly Cloudy,280,2012-12-22 23:54:00
7:54 PM,32.0,23.0,69,29.89,10.0,West,13.8,27.6,N/A,,Overcast,270,2012-12-23 00:54:00
8:54 PM,32.0,21.9,66,29.90,10.0,West,17.3,31.1,N/A,,Overcast,280,2012-12-23 01:54:00
9:54 PM,32.0,23.0,69,29.91,10.0,West,11.5,-,0.00,Snow,Light Snow,260,2012-12-23 02:54:00
10:54 PM,32.0,24.1,73,29.91,10.0,WSW,12.7,-,0.00,Snow,Light Snow,250,2012-12-23 03:54:00
11:01 PM,32.0,24.8,75,29.89,10.0,West,13.8,-,0.00,Snow,Light Snow,260,2012-12-23 04:01:00
11:16 PM,32.0,24.8,75,29.89,10.0,West,15.0,21.9,0.00,Snow,Light Snow,260,2012-12-23 04:16:00
11:45 PM,32.0,24.8,75,29.89,5.0,WSW,15.0,24.2,0.00,Snow,Light Snow,250,2012-12-23 04:45:00
11:54 PM,30.9,24.1,76,29.91,3.0,WSW,12.7,21.9,0.00,Snow,Light Snow,250,2012-12-23 04:54:00